Location: Newark
(52.8300°N, 8.0000°E)
Time: 00:04:21
(UTC+00:00)

STARLINK-1111 - Pass Details

Date: 29 January 2020
Orbit: 548 x 551 km, 53.0° (Epoch: 23 February)

Event Time Altitude Azimuth Distance (km) Brightness Sun altitude
Rises 17:10:27 0° 284° (WNW) 2,725 8.3 -9.7°
Reaches altitude 10° 17:12:41 10° 281° (W) 1,831 7.4 -10.0°
Maximum altitude 17:16:49 66° 200° (SSW) 605 4.0 -10.6°
Drops below altitude 10° 17:20:56 10° 118° (ESE) 1,827 5.8 -11.2°
Enters shadow 17:21:15 - 117° (ESE) 1,951 6.0 -11.3°
